Station Historical Data
Daily Summary for February 4, 2012 Units:  English    Metric   Both
« Previous Day
Next Day »
Daily Weekly Monthly Yearly Custom
  High: Low: Average:
Temperature: 56.9 °F 49.9 °F 53.3 °F
Dew Point: 55.8 °F 48.0 °F 51.8 °F
Humidity: 96% 89% 94%
Wind Speed: 11.0mph 0.0mph 3.7mph
Wind Gust: 14.0mph - -
Wind- - SSE
Pressure: 30.19 in 29.99 in -
Precipitation: 0.81 in    
Historical Graphs
 
 
Tabular Data for February 4, 2012
Time Temperature Dew Point Pressure Wind Wind Speed Wind Gust Humidity Rainfall Rate (Hourly) Conditions
00:00 50.2 °F 48.0 °F 30.19 in ESE 7.0 mph 11.0 mph 92% 0.00 in
00:01 50.2 °F 48.0 °F 30.19 in ESE 6.0 mph 11.0 mph 92% 0.00 in
00:06 50.1 °F 48.2 °F 30.18 in SE 8.0 mph 10.0 mph 93% 0.00 in
00:11 50.1 °F 48.2 °F 30.18 in ESE 10.0 mph 12.0 mph 93% 0.00 in
00:16 50.1 °F 48.2 °F 30.18 in ESE 8.0 mph 10.0 mph 93% 0.00 in
00:21 50.0 °F 48.1 °F 30.18 in ESE 8.0 mph 9.0 mph 93% 0.00 in
00:26 50.0 °F 48.1 °F 30.18 in East 9.0 mph 9.0 mph 93% 0.00 in
00:31 49.9 °F 48.0 °F 30.18 in ESE 9.0 mph 9.0 mph 93% 0.00 in
00:36 49.9 °F 48.0 °F 30.18 in ESE 11.0 mph 14.0 mph 93% 0.00 in
00:41 50.0 °F 48.1 °F 30.17 in SE 6.0 mph 12.0 mph 93% 0.00 in
00:46 50.0 °F 48.1 °F 30.17 in East 10.0 mph 10.0 mph 93% 0.00 in
00:51 50.0 °F 48.1 °F 30.18 in ESE 6.0 mph 7.0 mph 93% 0.00 in
00:56 49.9 °F 48.0 °F 30.17 in SE 5.0 mph 11.0 mph 93% 0.00 in
01:01 49.9 °F 48.0 °F 30.17 in SE 8.0 mph 10.0 mph 93% 0.00 in
01:07 49.9 °F 48.0 °F 30.17 in SE 8.0 mph 8.0 mph 93% 0.00 in
01:12 50.0 °F 48.1 °F 30.17 in ESE 6.0 mph 9.0 mph 93% 0.00 in
01:17 50.0 °F 48.1 °F 30.17 in ESE 4.0 mph 10.0 mph 93% 0.00 in
01:22 50.0 °F 48.1 °F 30.17 in ESE 6.0 mph 10.0 mph 93% 0.00 in
01:27 50.0 °F 48.1 °F 30.17 in SE 6.0 mph 8.0 mph 93% 0.00 in
01:32 50.0 °F 48.1 °F 30.17 in ESE 7.0 mph 8.0 mph 93% 0.00 in
01:37 50.0 °F 48.3 °F 30.17 in ESE 5.0 mph 7.0 mph 94% 0.00 in
01:42 50.0 °F 48.3 °F 30.17 in ESE 6.0 mph 8.0 mph 94% 0.00 in
01:47 49.9 °F 48.2 °F 30.16 in SE 5.0 mph 6.0 mph 94% 0.00 in
01:48 49.9 °F 48.2 °F 30.16 in ESE 6.0 mph 8.0 mph 94% 0.00 in
01:53 49.9 °F 48.2 °F 30.16 in ESE 7.0 mph 8.0 mph 94% 0.00 in
01:58 50.0 °F 48.3 °F 30.16 in ESE 6.0 mph 6.0 mph 94% 0.00 in
02:03 50.0 °F 48.3 °F 30.16 in ESE 6.0 mph 8.0 mph 94% 0.00 in
02:08 50.0 °F 48.1 °F 30.16 in ESE 1.0 mph 8.0 mph 93% 0.00 in
02:14 50.1 °F 48.2 °F 30.16 in ESE 3.0 mph 3.0 mph 93% 0.00 in
02:19 50.1 °F 48.2 °F 30.17 in SE 4.0 mph 4.0 mph 93% 0.00 in
02:24 50.1 °F 48.2 °F 30.16 in ESE 4.0 mph 4.0 mph 93% 0.00 in
02:29 50.2 °F 48.3 °F 30.16 in ESE 4.0 mph 6.0 mph 93% 0.00 in
02:34 50.1 °F 48.2 °F 30.16 in ESE 4.0 mph 5.0 mph 93% 0.00 in
02:39 50.2 °F 48.3 °F 30.16 in SE 4.0 mph 6.0 mph 93% 0.00 in
02:44 50.2 °F 48.3 °F 30.16 in SE 3.0 mph 7.0 mph 93% 0.00 in
02:49 50.2 °F 48.5 °F 30.15 in ESE 7.0 mph 7.0 mph 94% 0.00 in
02:54 50.3 °F 48.4 °F 30.15 in ESE 6.0 mph 8.0 mph 93% 0.00 in
02:59 50.3 °F 48.4 °F 30.15 in ESE 5.0 mph 7.0 mph 93% 0.00 in
03:04 50.3 °F 48.4 °F 30.15 in East 8.0 mph 8.0 mph 93% 0.00 in
03:09 50.3 °F 48.4 °F 30.15 in ESE 4.0 mph 8.0 mph 93% 0.00 in
03:14 50.3 °F 48.6 °F 30.15 in East 3.0 mph 4.0 mph 94% 0.00 in
03:19 50.3 °F 48.6 °F 30.15 in SE 1.0 mph 3.0 mph 94% 0.00 in
03:24 50.3 °F 48.6 °F 30.16 in Calm   2.0 mph 94% 0.00 in
03:29 50.3 °F 48.6 °F 30.16 in SE 2.0 mph 2.0 mph 94% 0.00 in
03:34 50.3 °F 48.6 °F 30.16 in SE 3.0 mph 5.0 mph 94% 0.00 in
03:39 50.4 °F 48.7 °F 30.15 in SE 5.0 mph 7.0 mph 94% 0.00 in
03:44 50.4 °F 48.7 °F 30.15 in ESE 5.0 mph 8.0 mph 94% 0.00 in
03:49 50.4 °F 48.7 °F 30.15 in SSE 1.0 mph 5.0 mph 94% 0.00 in
03:54 50.4 °F 48.7 °F 30.15 in Calm   1.0 mph 94% 0.00 in
03:59 50.3 °F 48.6 °F 30.15 in ESE 1.0 mph 1.0 mph 94% 0.00 in
04:04 50.3 °F 48.6 °F 30.15 in ESE 4.0 mph 4.0 mph 94% 0.00 in
04:09 50.3 °F 48.6 °F 30.14 in SE 2.0 mph 5.0 mph 94% 0.00 in
04:14 50.3 °F 48.6 °F 30.14 in ESE 3.0 mph 5.0 mph 94% 0.05 in
04:19 50.3 °F 48.6 °F 30.14 in SE 3.0 mph 3.0 mph 94% 0.05 in
04:24 50.3 °F 48.9 °F 30.14 in ESE 4.0 mph 4.0 mph 95% 0.04 in
04:29 50.3 °F 48.9 °F 30.14 in SE 2.0 mph 4.0 mph 95% 0.00 in
04:34 50.3 °F 48.9 °F 30.14 in SE 2.0 mph 4.0 mph 95% 0.00 in
04:39 50.3 °F 48.9 °F 30.14 in ESE 2.0 mph 3.0 mph 95% 0.00 in
04:44 50.4 °F 49.0 °F 30.14 in ESE 2.0 mph 2.0 mph 95% 0.00 in
04:49 50.3 °F 48.9 °F 30.14 in SE 3.0 mph 3.0 mph 95% 0.00 in
04:54 50.4 °F 49.0 °F 30.14 in SE 4.0 mph 4.0 mph 95% 0.00 in
04:59 50.5 °F 49.1 °F 30.14 in SE 3.0 mph 3.0 mph 95% 0.00 in
05:05 50.5 °F 49.1 °F 30.14 in ESE 3.0 mph 4.0 mph 95% 0.00 in
05:10 50.5 °F 49.1 °F 30.14 in ESE 1.0 mph 2.0 mph 95% 0.00 in
05:15 50.5 °F 49.1 °F 30.14 in ESE 2.0 mph 2.0 mph 95% 0.00 in
05:20 50.6 °F 49.2 °F 30.14 in ESE 3.0 mph 4.0 mph 95% 0.00 in
05:25 50.7 °F 49.3 °F 30.14 in SE 2.0 mph 4.0 mph 95% 0.00 in
05:30 50.7 °F 49.3 °F 30.14 in ESE 2.0 mph 4.0 mph 95% 0.00 in
05:32 50.7 °F 49.0 °F 30.14 in SE 3.0 mph 4.0 mph 94% 0.00 in
05:37 50.8 °F 49.1 °F 30.13 in ESE 4.0 mph 5.0 mph 94% 0.00 in
05:42 50.9 °F 49.2 °F 30.14 in ESE 4.0 mph 8.0 mph 94% 0.00 in
05:47 51.0 °F 49.3 °F 30.13 in ESE 5.0 mph 9.0 mph 94% 0.00 in
05:52 51.0 °F 49.3 °F 30.13 in SE 4.0 mph 7.0 mph 94% 0.00 in
05:57 51.1 °F 49.4 °F 30.13 in SE 4.0 mph 6.0 mph 94% 0.00 in
06:02 51.0 °F 49.0 °F 30.13 in SSE 6.0 mph 9.0 mph 93% 0.00 in
06:07 51.1 °F 49.2 °F 30.13 in SE 5.0 mph 10.0 mph 93% 0.00 in
06:12 51.1 °F 49.2 °F 30.12 in SE 5.0 mph 10.0 mph 93% 0.00 in
06:17 51.1 °F 49.2 °F 30.13 in ESE 5.0 mph 8.0 mph 93% 0.00 in
06:22 51.2 °F 49.2 °F 30.12 in ESE 5.0 mph 8.0 mph 93% 0.00 in
06:27 51.2 °F 49.2 °F 30.13 in ESE 4.0 mph 9.0 mph 93% 0.00 in
06:32 51.2 °F 49.2 °F 30.13 in SE 5.0 mph 6.0 mph 93% 0.00 in
06:37 51.2 °F 49.2 °F 30.12 in SE 4.0 mph 9.0 mph 93% 0.00 in
06:42 51.2 °F 49.2 °F 30.13 in SE 4.0 mph 7.0 mph 93% 0.00 in
06:47 51.3 °F 49.1 °F 30.13 in ESE 6.0 mph 10.0 mph 92% 0.00 in
06:52 51.3 °F 49.1 °F 30.12 in SE 8.0 mph 8.0 mph 92% 0.00 in
06:57 51.2 °F 49.0 °F 30.12 in SE 7.0 mph 10.0 mph 92% 0.00 in
07:02 51.2 °F 49.0 °F 30.12 in ESE 7.0 mph 11.0 mph 92% 0.00 in
07:07 51.2 °F 49.0 °F 30.12 in ESE 7.0 mph 10.0 mph 92% 0.00 in
07:12 51.2 °F 49.0 °F 30.12 in SE 7.0 mph 10.0 mph 92% 0.00 in
07:17 51.2 °F 49.0 °F 30.12 in SE 8.0 mph 10.0 mph 92% 0.00 in
07:22 51.2 °F 49.0 °F 30.12 in SE 7.0 mph 11.0 mph 92% 0.00 in
07:27 51.2 °F 49.0 °F 30.12 in SE 7.0 mph 10.0 mph 92% 0.00 in
07:32 51.2 °F 48.7 °F 30.12 in SE 8.0 mph 12.0 mph 91% 0.00 in
07:37 51.2 °F 48.7 °F 30.13 in SE 7.0 mph 9.0 mph 91% 0.00 in
07:42 51.3 °F 48.8 °F 30.13 in SE 5.0 mph 9.0 mph 91% 0.00 in
07:47 51.4 °F 48.9 °F 30.13 in SE 4.0 mph 8.0 mph 91% 0.00 in
07:52 51.4 °F 48.9 °F 30.13 in ESE 5.0 mph 10.0 mph 91% 0.00 in
07:57 51.4 °F 48.9 °F 30.13 in ESE 6.0 mph 8.0 mph 91% 0.00 in
08:02 51.5 °F 49.0 °F 30.13 in ESE 8.0 mph 9.0 mph 91% 0.00 in
08:07 51.5 °F 49.0 °F 30.12 in SSE 8.0 mph 10.0 mph 91% 0.00 in
08:12 51.6 °F 49.1 °F 30.12 in SE 8.0 mph 10.0 mph 91% 0.00 in
08:17 51.8 °F 49.3 °F 30.12 in SE 7.0 mph 12.0 mph 91% 0.00 in
08:22 52.0 °F 49.2 °F 30.12 in ESE 6.0 mph 9.0 mph 90% 0.00 in
08:28 52.2 °F 49.4 °F 30.13 in SSE 6.0 mph 8.0 mph 90% 0.00 in
08:33 52.3 °F 49.5 °F 30.13 in ESE 8.0 mph 9.0 mph 90% 0.00 in
08:38 52.5 °F 49.4 °F 30.12 in SE 8.0 mph 10.0 mph 89% 0.00 in
08:43 52.6 °F 49.5 °F 30.12 in SE 6.0 mph 11.0 mph 89% 0.00 in
08:48 52.7 °F 49.5 °F 30.12 in SE 6.0 mph 9.0 mph 89% 0.00 in
08:53 52.8 °F 49.7 °F 30.12 in SSE 4.0 mph 11.0 mph 89% 0.00 in
08:58 52.9 °F 49.8 °F 30.12 in SE 5.0 mph 9.0 mph 89% 0.00 in
09:03 52.9 °F 49.8 °F 30.12 in SSE 6.0 mph 8.0 mph 89% 0.00 in
09:08 53.0 °F 49.8 °F 30.12 in SSE 4.0 mph 9.0 mph 89% 0.00 in
09:13 53.1 °F 50.0 °F 30.12 in SSE 7.0 mph 9.0 mph 89% 0.00 in
09:18 53.2 °F 50.0 °F 30.13 in SE 4.0 mph 7.0 mph 89% 0.00 in
09:23 53.2 °F 50.0 °F 30.12 in SE 4.0 mph 7.0 mph 89% 0.00 in
09:28 53.2 °F 50.0 °F 30.12 in SE 4.0 mph 7.0 mph 89% 0.00 in
09:33 53.3 °F 50.2 °F 30.12 in ESE 9.0 mph 9.0 mph 89% 0.00 in
09:38 53.4 °F 50.2 °F 30.12 in SE 5.0 mph 8.0 mph 89% 0.00 in
09:43 53.5 °F 50.3 °F 30.12 in SE 4.0 mph 6.0 mph 89% 0.00 in
09:48 53.6 °F 50.4 °F 30.12 in SE 1.0 mph 5.0 mph 89% 0.00 in
09:53 53.7 °F 50.5 °F 30.12 in SE 1.0 mph 3.0 mph 89% 0.00 in
09:58 53.8 °F 50.6 °F 30.12 in SSW 1.0 mph 4.0 mph 89% 0.00 in
10:03 53.8 °F 50.6 °F 30.13 in West 2.0 mph 2.0 mph 89% 0.00 in
10:08 53.8 °F 50.9 °F 30.13 in NW 4.0 mph 5.0 mph 90% 0.41 in
10:13 53.3 °F 50.7 °F 30.14 in WNW 6.0 mph 6.0 mph 91% 0.37 in
10:18 52.9 °F 50.6 °F 30.14 in NNW 3.0 mph 5.0 mph 92% 0.14 in
10:24 52.6 °F 50.3 °F 30.15 in WNW 3.0 mph 6.0 mph 92% 0.33 in
10:29 52.4 °F 50.4 °F 30.15 in NW 7.0 mph 7.0 mph 93% 0.10 in
10:34 52.3 °F 50.3 °F 30.14 in WNW 5.0 mph 5.0 mph 93% 0.05 in
10:39 52.2 °F 50.5 °F 30.15 in NW 2.0 mph 5.0 mph 94% 0.04 in
10:44 52.1 °F 50.4 °F 30.15 in NW 3.0 mph 5.0 mph 94% 0.60 in
10:49 52.0 °F 50.3 °F 30.15 in NW 3.0 mph 4.0 mph 94% 0.19 in
10:54 51.9 °F 50.5 °F 30.15 in NW 4.0 mph 5.0 mph 95% 0.07 in
10:59 51.8 °F 50.4 °F 30.15 in NW 2.0 mph 3.0 mph 95% 0.05 in
11:04 51.8 °F 50.4 °F 30.15 in NW 2.0 mph 3.0 mph 95% 0.17 in
11:09 51.8 °F 50.4 °F 30.15 in NW 2.0 mph 3.0 mph 95% 0.28 in
11:14 51.7 °F 50.3 °F 30.15 in NNE 1.0 mph 2.0 mph 95% 0.15 in
11:19 51.8 °F 50.4 °F 30.15 in North 2.0 mph 2.0 mph 95% 0.14 in
11:24 51.8 °F 50.4 °F 30.15 in NE 2.0 mph 2.0 mph 95% 0.09 in
11:29 51.8 °F 50.4 °F 30.15 in NE 1.0 mph 2.0 mph 95% 0.09 in
11:35 51.9 °F 50.5 °F 30.15 in NE 2.0 mph 3.0 mph 95% 0.24 in
11:40 51.9 °F 50.5 °F 30.14 in NNE 2.0 mph 2.0 mph 95% 0.36 in
11:45 51.9 °F 50.5 °F 30.14 in NNE 2.0 mph 3.0 mph 95% 0.14 in
11:46 51.9 °F 50.5 °F 30.14 in NNE 1.0 mph 3.0 mph 95% 0.14 in
11:51 51.9 °F 50.5 °F 30.14 in NE 1.0 mph 2.0 mph 95% 0.25 in
11:56 52.0 °F 50.6 °F 30.14 in Calm   1.0 mph 95% 0.35 in
12:02 52.0 °F 50.6 °F 30.14 in NE 2.0 mph 2.0 mph 95% 0.29 in
12:07 52.0 °F 50.6 °F 30.14 in ENE 1.0 mph 1.0 mph 95% 0.26 in
12:12 52.2 °F 50.8 °F 30.13 in ENE 3.0 mph 3.0 mph 95% 0.13 in
12:17 52.3 °F 50.9 °F 30.12 in ENE 2.0 mph 3.0 mph 95% 0.13 in
12:22 52.4 °F 51.3 °F 30.12 in ENE 3.0 mph 4.0 mph 96% 0.09 in
12:27 52.5 °F 51.1 °F 30.11 in East 4.0 mph 5.0 mph 95% 0.16 in
12:32 52.7 °F 51.6 °F 30.10 in ESE 4.0 mph 5.0 mph 96% 0.14 in
12:37 52.8 °F 51.7 °F 30.10 in ESE 4.0 mph 6.0 mph 96% 0.08 in
12:42 52.9 °F 51.8 °F 30.09 in East 6.0 mph 6.0 mph 96% 0.08 in
12:47 53.0 °F 51.9 °F 30.09 in East 6.0 mph 6.0 mph 96% 0.07 in
12:52 53.0 °F 51.9 °F 30.08 in East 4.0 mph 7.0 mph 96% 0.24 in
12:57 53.0 °F 51.9 °F 30.08 in ESE 6.0 mph 7.0 mph 96% 0.14 in
13:02 53.0 °F 51.9 °F 30.08 in ESE 5.0 mph 7.0 mph 96% 0.09 in
13:07 53.0 °F 51.9 °F 30.07 in ESE 4.0 mph 7.0 mph 96% 0.10 in
13:12 53.1 °F 52.0 °F 30.07 in ESE 5.0 mph 7.0 mph 96% 0.16 in
13:17 53.1 °F 52.0 °F 30.07 in ESE 7.0 mph 7.0 mph 96% 0.13 in
13:22 53.3 °F 52.2 °F 30.07 in SE 5.0 mph 6.0 mph 96% 0.09 in
13:27 53.4 °F 52.3 °F 30.06 in ESE 6.0 mph 7.0 mph 96% 0.15 in
13:32 53.5 °F 52.4 °F 30.06 in ESE 7.0 mph 7.0 mph 96% 0.10 in
13:38 53.7 °F 52.6 °F 30.06 in ESE 5.0 mph 6.0 mph 96% 0.12 in
13:43 53.7 °F 52.6 °F 30.05 in ESE 5.0 mph 7.0 mph 96% 0.14 in
13:48 53.8 °F 52.7 °F 30.05 in SE 5.0 mph 6.0 mph 96% 0.12 in
13:53 53.7 °F 52.6 °F 30.05 in ESE 5.0 mph 6.0 mph 96% 0.93 in
13:58 53.7 °F 52.6 °F 30.05 in ESE 4.0 mph 6.0 mph 96% 0.22 in
14:03 53.8 °F 52.7 °F 30.05 in SE 2.0 mph 5.0 mph 96% 0.12 in
14:08 53.9 °F 52.8 °F 30.04 in ESE 2.0 mph 2.0 mph 96% 0.30 in
14:13 53.9 °F 52.8 °F 30.05 in Calm   2.0 mph 96% 0.23 in
14:18 54.0 °F 52.9 °F 30.05 in Calm     96% 0.16 in
14:24 54.0 °F 52.9 °F 30.04 in Calm   1.0 mph 96% 0.11 in
14:29 54.1 °F 53.0 °F 30.04 in Calm     96% 0.11 in
14:34 54.1 °F 53.0 °F 30.04 in ESE 4.0 mph 4.0 mph 96% 0.08 in
14:39 54.2 °F 53.1 °F 30.02 in ESE 7.0 mph 8.0 mph 96% 0.07 in
14:44 54.3 °F 53.2 °F 30.02 in SE 7.0 mph 10.0 mph 96% 0.07 in
14:49 54.4 °F 53.3 °F 30.02 in SE 6.0 mph 8.0 mph 96% 0.06 in
14:54 54.3 °F 53.2 °F 30.02 in SE 7.0 mph 10.0 mph 96% 0.04 in
14:59 54.4 °F 53.3 °F 30.02 in SE 5.0 mph 8.0 mph 96% 0.00 in
15:04 54.4 °F 53.3 °F 30.02 in SE 6.0 mph 9.0 mph 96% 0.00 in
15:09 54.4 °F 53.3 °F 30.02 in SE 8.0 mph 11.0 mph 96% 0.00 in
15:14 54.6 °F 53.5 °F 30.03 in SSE 4.0 mph 6.0 mph 96% 0.00 in
15:19 54.6 °F 53.5 °F 30.03 in SE 4.0 mph 4.0 mph 96% 0.00 in
15:24 54.6 °F 53.5 °F 30.03 in ESE 3.0 mph 3.0 mph 96% 0.00 in
15:29 54.6 °F 53.5 °F 30.03 in SE 2.0 mph 4.0 mph 96% 0.00 in
15:34 54.6 °F 53.5 °F 30.02 in SE 3.0 mph 4.0 mph 96% 0.00 in
15:39 54.7 °F 53.6 °F 30.02 in ESE 4.0 mph 8.0 mph 96% 0.00 in
15:44 54.7 °F 53.6 °F 30.02 in South 2.0 mph 4.0 mph 96% 0.00 in
15:50 54.8 °F 53.7 °F 30.03 in SSE 2.0 mph 4.0 mph 96% 0.00 in
15:55 54.9 °F 53.8 °F 30.03 in SW 3.0 mph 4.0 mph 96% 0.00 in
16:00 55.0 °F 53.9 °F 30.03 in SSE 2.0 mph 3.0 mph 96% 0.00 in
16:05 55.0 °F 53.9 °F 30.02 in SSW 2.0 mph 4.0 mph 96% 0.00 in
16:10 55.1 °F 54.0 °F 30.02 in South 2.0 mph 3.0 mph 96% 0.00 in
16:15 55.2 °F 54.1 °F 30.03 in SSE 3.0 mph 3.0 mph 96% 0.00 in
16:20 55.3 °F 54.2 °F 30.02 in SSW 3.0 mph 3.0 mph 96% 0.00 in
16:25 55.4 °F 54.3 °F 30.02 in SSW 2.0 mph 5.0 mph 96% 0.00 in
16:30 55.4 °F 54.3 °F 30.02 in South 2.0 mph 5.0 mph 96% 0.00 in
16:35 55.4 °F 54.3 °F 30.02 in SSE 5.0 mph 5.0 mph 96% 0.00 in
16:40 55.4 °F 54.3 °F 30.01 in ESE 5.0 mph 6.0 mph 96% 0.00 in
16:45 55.4 °F 54.3 °F 30.00 in SE 6.0 mph 9.0 mph 96% 0.00 in
16:50 55.6 °F 54.5 °F 30.00 in SE 7.0 mph 9.0 mph 96% 0.00 in
16:55 55.7 °F 54.6 °F 30.00 in SSE 8.0 mph 10.0 mph 96% 0.00 in
17:00 55.9 °F 54.8 °F 30.00 in SE 9.0 mph 13.0 mph 96% 0.00 in
17:05 56.3 °F 55.2 °F 29.99 in SSE 7.0 mph 14.0 mph 96% 0.00 in
17:10 56.5 °F 55.4 °F 29.99 in SSE 9.0 mph 12.0 mph 96% 0.00 in
17:15 56.6 °F 55.5 °F 29.99 in SSE 6.0 mph 10.0 mph 96% 0.00 in
17:20 56.6 °F 55.5 °F 29.99 in SSE 8.0 mph 11.0 mph 96% 0.05 in
17:25 56.6 °F 55.5 °F 29.99 in SSE 5.0 mph 9.0 mph 96% 0.05 in
17:30 56.7 °F 55.6 °F 30.00 in SW 2.0 mph 7.0 mph 96% 0.05 in
17:35 56.7 °F 55.6 °F 30.02 in WNW 3.0 mph 7.0 mph 96% 0.00 in
17:36 56.7 °F 55.6 °F 30.02 in WNW 4.0 mph 6.0 mph 96% 0.00 in
17:41 56.7 °F 55.6 °F 30.02 in West 2.0 mph 6.0 mph 96% 0.00 in
17:46 56.7 °F 55.6 °F 30.02 in WNW 4.0 mph 6.0 mph 96% 0.00 in
17:51 56.8 °F 55.7 °F 30.02 in West 4.0 mph 5.0 mph 96% 0.00 in
17:56 56.7 °F 55.6 °F 30.02 in WSW 1.0 mph 3.0 mph 96% 0.00 in
18:01 56.7 °F 55.6 °F 30.02 in WNW 2.0 mph 5.0 mph 96% 0.00 in
18:06 56.7 °F 55.6 °F 30.01 in Calm   2.0 mph 96% 0.00 in
18:11 56.6 °F 55.5 °F 30.01 in ESE 2.0 mph 2.0 mph 96% 0.00 in
18:16 56.6 °F 55.5 °F 30.00 in ESE 3.0 mph 4.0 mph 96% 0.00 in
18:21 56.6 °F 55.5 °F 30.01 in WNW 3.0 mph 3.0 mph 96% 0.00 in
18:26 56.5 °F 55.4 °F 30.02 in WNW 3.0 mph 3.0 mph 96% 0.00 in
18:31 56.5 °F 55.4 °F 30.01 in WNW 1.0 mph 1.0 mph 96% 0.00 in
18:36 56.5 °F 55.4 °F 30.02 in West 2.0 mph 3.0 mph 96% 0.00 in
18:41 56.5 °F 55.4 °F 30.02 in SW 1.0 mph 3.0 mph 96% 0.00 in
18:46 56.5 °F 55.4 °F 30.02 in WSW 1.0 mph 1.0 mph 96% 0.00 in
18:51 56.5 °F 55.4 °F 30.02 in WSW 3.0 mph 3.0 mph 96% 0.00 in
18:56 56.5 °F 55.4 °F 30.02 in West 1.0 mph 3.0 mph 96% 0.00 in
19:01 56.5 °F 55.4 °F 30.03 in WSW 2.0 mph 2.0 mph 96% 0.00 in
19:06 56.6 °F 55.5 °F 30.03 in SW 2.0 mph 2.0 mph 96% 0.00 in
19:11 56.6 °F 55.5 °F 30.02 in SSE 1.0 mph 2.0 mph 96% 0.00 in
19:16 56.6 °F 55.5 °F 30.02 in SW 1.0 mph 2.0 mph 96% 0.00 in
19:21 56.6 °F 55.5 °F 30.02 in Calm   2.0 mph 96% 0.00 in
19:26 56.6 °F 55.5 °F 30.02 in Calm     96% 0.00 in
19:31 56.6 °F 55.5 °F 30.02 in Calm   1.0 mph 96% 0.00 in
19:37 56.6 °F 55.5 °F 30.02 in Calm   1.0 mph 96% 0.00 in
19:42 56.6 °F 55.5 °F 30.03 in Calm   1.0 mph 96% 0.00 in
19:47 56.6 °F 55.5 °F 30.03 in WSW 1.0 mph 2.0 mph 96% 0.00 in
19:52 56.7 °F 55.6 °F 30.03 in West 1.0 mph 2.0 mph 96% 0.00 in
19:57 56.7 °F 55.6 °F 30.03 in West 1.0 mph 2.0 mph 96% 0.00 in
20:02 56.7 °F 55.6 °F 30.03 in West 1.0 mph 1.0 mph 96% 0.00 in
20:07 56.7 °F 55.6 °F 30.03 in West 1.0 mph 2.0 mph 96% 0.00 in
20:12 56.8 °F 55.7 °F 30.03 in West 1.0 mph 3.0 mph 96% 0.00 in
20:17 56.7 °F 55.6 °F 30.03 in West 1.0 mph 2.0 mph 96% 0.00 in
20:22 56.7 °F 55.6 °F 30.03 in West 2.0 mph 3.0 mph 96% 0.00 in
20:27 56.7 °F 55.6 °F 30.03 in West 2.0 mph 2.0 mph 96% 0.00 in
20:32 56.8 °F 55.7 °F 30.03 in WNW 1.0 mph 4.0 mph 96% 0.00 in
20:37 56.8 °F 55.7 °F 30.03 in West 1.0 mph 3.0 mph 96% 0.00 in
20:42 56.8 °F 55.7 °F 30.03 in West 1.0 mph 2.0 mph 96% 0.00 in
20:47 56.8 °F 55.7 °F 30.03 in West 2.0 mph 2.0 mph 96% 0.00 in
20:52 56.8 °F 55.7 °F 30.03 in Calm   1.0 mph 96% 0.00 in
20:57 56.8 °F 55.7 °F 30.03 in Calm   1.0 mph 96% 0.00 in
21:02 56.8 °F 55.7 °F 30.03 in Calm   1.0 mph 96% 0.00 in
21:07 56.7 °F 55.6 °F 30.03 in Calm     96% 0.00 in
21:12 56.6 °F 55.5 °F 30.03 in Calm     96% 0.00 in
21:17 56.6 °F 55.5 °F 30.03 in Calm   1.0 mph 96% 0.00 in
21:22 56.5 °F 55.4 °F 30.03 in SW 1.0 mph 1.0 mph 96% 0.00 in
21:28 56.5 °F 55.4 °F 30.03 in WSW 1.0 mph 1.0 mph 96% 0.00 in
21:33 56.5 °F 55.4 °F 30.04 in SW 2.0 mph 2.0 mph 96% 0.00 in
21:38 56.4 °F 55.3 °F 30.03 in SW 1.0 mph 1.0 mph 96% 0.00 in
21:43 56.4 °F 55.3 °F 30.03 in SW 1.0 mph 1.0 mph 96% 0.00 in
21:48 56.5 °F 55.4 °F 30.04 in SW 2.0 mph 2.0 mph 96% 0.00 in
21:53 56.5 °F 55.4 °F 30.03 in West 1.0 mph 1.0 mph 96% 0.00 in
21:58 56.5 °F 55.4 °F 30.03 in Calm   1.0 mph 96% 0.00 in
22:03 56.6 °F 55.5 °F 30.03 in West 1.0 mph 1.0 mph 96% 0.00 in
22:08 56.6 °F 55.5 °F 30.03 in WSW 2.0 mph 2.0 mph 96% 0.00 in
22:13 56.7 °F 55.6 °F 30.03 in West 2.0 mph 3.0 mph 96% 0.00 in
22:18 56.8 °F 55.7 °F 30.03 in WSW 1.0 mph 1.0 mph 96% 0.00 in
22:23 56.8 °F 55.7 °F 30.03 in WSW 1.0 mph 2.0 mph 96% 0.00 in
22:28 56.8 °F 55.7 °F 30.04 in West 2.0 mph 3.0 mph 96% 0.00 in
22:33 56.8 °F 55.7 °F 30.03 in SW 1.0 mph 3.0 mph 96% 0.00 in
22:38 56.9 °F 55.8 °F 30.04 in WSW 2.0 mph 5.0 mph 96% 0.00 in
22:43 56.8 °F 55.7 °F 30.03 in SW 3.0 mph 3.0 mph 96% 0.00 in
22:48 56.8 °F 55.7 °F 30.04 in SW 2.0 mph 2.0 mph 96% 0.00 in
22:53 56.7 °F 55.6 °F 30.03 in SSW 1.0 mph 2.0 mph 96% 0.00 in
22:58 56.7 °F 55.6 °F 30.03 in SW 1.0 mph 2.0 mph 96% 0.00 in
23:03 56.8 °F 55.7 °F 30.03 in SSW 2.0 mph 3.0 mph 96% 0.00 in
23:09 56.8 °F 55.7 °F 30.03 in SW 1.0 mph 2.0 mph 96% 0.00 in
23:14 56.7 °F 55.6 °F 30.04 in SW 3.0 mph 3.0 mph 96% 0.00 in
23:19 56.7 °F 55.6 °F 30.03 in Calm   2.0 mph 96% 0.00 in
23:24 56.7 °F 55.6 °F 30.03 in SW 1.0 mph 2.0 mph 96% 0.00 in
23:29 56.8 °F 55.7 °F 30.03 in Calm   2.0 mph 96% 0.00 in
23:34 56.8 °F 55.7 °F 30.03 in SW 2.0 mph 3.0 mph 96% 0.00 in
23:39 56.8 °F 55.7 °F 30.03 in SW 1.0 mph 2.0 mph 96% 0.00 in
23:44 56.8 °F 55.7 °F 30.03 in SSW 2.0 mph 4.0 mph 96% 0.00 in
23:49 56.8 °F 55.7 °F 30.03 in SW 2.0 mph 3.0 mph 96% 0.00 in
23:54 56.9 °F 55.8 °F 30.03 in SW 1.0 mph 2.0 mph 96% 0.00 in
23:59 56.8 °F 55.7 °F 30.03 in SW 2.0 mph 2.0 mph 96% 0.00 in
Compliments of Weather Underground